Location: The Rolnick Observatory
(41.1711°N, 73.3275°W)
Time: 19:02:26
(UTC-04:00)

Envisat - Pass Details

Date: 25 February 2019
Orbit: 764 x 766 km, 98.1° (Epoch: 17 October)

Event Time Altitude Azimuth Distance (km) Brightness Sun altitude
Rises 19:04:43 0° 183° (S) 3,215 6.2 -16.8°
Reaches altitude 10° 19:07:07 10° 190° (S) 2,293 5.5 -17.3°
Maximum altitude 19:11:55 43° 262° (W) 1,068 4.2 -18.2°
Drops below altitude 10° 19:16:45 10° 333° (NNW) 2,309 5.9 -19.1°
Sets 19:19:11 0° 341° (NNW) 3,239 6.6 -19.5°
